RYR13LH EPKT-EGSS

Flight info

Callsign RYR13LH
Flight time 1h 58m
Altitude 38000
Route OMFOL T738 DINOV DCT NAROX DCT KUMER DCT NOGRO M40 RINIS
Aircraft B38M/M-SADE3FGILRWY/SB1

Departure

Time 2026-05-04 10:47
Airport Katowice Wojciech Korfanty International Airport (EPKT)

Arrival

Time 2026-05-04 12:46
Airport London Stansted Airport (EGSS)
Time Latitude Longitude Altitude Speed Heading
2026-05-04 10:10 50.47152 19.07758 1001 ft 0 kts 180°
2026-05-04 10:19 50.47153 19.07758 1001 ft 0 kts 180°
2026-05-04 10:34 50.47154 19.07758 1001 ft 0 kts 180°
2026-05-04 10:36 50.47174 19.07758 1004 ft 4 kts 180°
2026-05-04 10:37 50.47197 19.07759 1001 ft 2 kts 180°
2026-05-04 10:37 50.47221 19.07754 1003 ft 4 kts 151°
2026-05-04 10:37 50.47234 19.07727 1001 ft 3 kts 91°
2026-05-04 10:37 50.47234 19.07688 1001 ft 3 kts 90°
2026-05-04 10:39 50.47234 19.07682 1001 ft 0 kts 90°
2026-05-04 10:41 50.47234 19.07687 1001 ft 1 kts 90°
2026-05-04 10:41 50.47234 19.07716 1002 ft 4 kts 90°
2026-05-04 10:42 50.47234 19.07770 1005 ft 6 kts 90°
2026-05-04 10:42 50.47234 19.07850 1005 ft 8 kts 90°
2026-05-04 10:42 50.47233 19.07953 1005 ft 10 kts 90°
2026-05-04 10:42 50.47233 19.08077 1006 ft 12 kts 90°
2026-05-04 10:43 50.47233 19.08223 1006 ft 14 kts 91°
2026-05-04 10:44 50.47229 19.09754 1006 ft 24 kts 90°
2026-05-04 10:45 50.47229 19.09987 1006 ft 16 kts 86°
2026-05-04 10:45 50.47291 19.10134 1001 ft 17 kts 52°
2026-05-04 10:45 50.47369 19.10290 1003 ft 19 kts 51°
2026-05-04 10:45 50.47444 19.10433 1001 ft 15 kts 33°
2026-05-04 10:46 50.47543 19.10446 1001 ft 14 kts 359°
2026-05-04 10:46 50.47595 19.10379 1005 ft 11 kts 270°
2026-05-04 10:46 50.47594 19.10214 1005 ft 30 kts 270°
2026-05-04 10:46 50.47596 19.09492 1002 ft 100 kts 270°
2026-05-04 10:47 50.47602 19.08082 1016 ft 153 kts 270°
2026-05-04 10:47 50.47621 19.06350 1494 ft 166 kts 265°
2026-05-04 10:47 50.47622 19.04496 2120 ft 174 kts 266°
2026-05-04 10:47 50.47619 19.02650 2988 ft 175 kts 265°
2026-05-04 10:49 50.47502 18.84511 7979 ft 268 kts 266°
2026-05-04 10:49 50.47463 18.81558 8777 ft 274 kts 265°
2026-05-04 10:50 50.47425 18.78539 9606 ft 279 kts 265°
2026-05-04 10:51 50.47071 18.54943 14687 ft 324 kts 265°
2026-05-04 10:52 50.46983 18.51388 15405 ft 328 kts 265°
2026-05-04 10:52 50.46895 18.47794 16124 ft 332 kts 265°
2026-05-04 10:52 50.46806 18.44152 16809 ft 335 kts 265°
2026-05-04 10:54 50.46123 18.17581 20958 ft 360 kts 266°
2026-05-04 10:54 50.46018 18.13693 21507 ft 363 kts 266°
2026-05-04 10:56 50.45250 17.86492 24933 ft 383 kts 266°
2026-05-04 10:56 50.45386 17.82289 25315 ft 388 kts 282°
2026-05-04 10:56 50.46297 17.78296 25801 ft 391 kts 292°
2026-05-04 10:57 50.47378 17.74343 26156 ft 396 kts 292°
2026-05-04 10:57 50.48484 17.70374 26629 ft 398 kts 292°
2026-05-04 10:57 50.49612 17.66385 27050 ft 400 kts 292°
2026-05-04 10:57 50.50751 17.62387 27447 ft 404 kts 292°
2026-05-04 10:58 50.51906 17.58347 27874 ft 406 kts 292°
2026-05-04 10:58 50.53065 17.54296 28290 ft 408 kts 292°
2026-05-04 10:58 50.54233 17.50211 28673 ft 411 kts 292°
2026-05-04 10:58 50.55407 17.46095 29066 ft 414 kts 292°
2026-05-04 10:59 50.56587 17.41948 29481 ft 415 kts 292°
2026-05-04 10:59 50.57764 17.37808 29976 ft 415 kts 292°
2026-05-04 10:59 50.58945 17.33646 30276 ft 418 kts 292°
2026-05-04 10:59 50.60133 17.29450 30616 ft 420 kts 292°
2026-05-04 11:00 50.61323 17.25242 30947 ft 422 kts 292°
2026-05-04 11:01 50.69732 16.95284 33205 ft 431 kts 291°
2026-05-04 11:02 50.70908 16.90942 33627 ft 430 kts 291°
2026-05-04 11:02 50.72078 16.86616 34055 ft 428 kts 291°
2026-05-04 11:05 50.88180 16.26373 37982 ft 423 kts 291°
2026-05-04 11:06 50.90446 16.17769 37994 ft 421 kts 290°
2026-05-04 11:06 50.92690 16.09221 37987 ft 419 kts 290°
2026-05-04 11:10 51.08159 15.49270 37978 ft 418 kts 289°
2026-05-04 11:12 51.16821 15.14999 37976 ft 416 kts 289°
2026-05-04 11:12 51.18966 15.06435 37979 ft 416 kts 289°
2026-05-04 11:13 51.20597 14.97676 38009 ft 410 kts 276°
2026-05-04 11:13 51.21481 14.88635 37984 ft 412 kts 276°
2026-05-04 11:14 51.21622 14.87171 37996 ft 412 kts 276°
2026-05-04 11:16 51.25675 14.43429 37993 ft 412 kts 276°
2026-05-04 11:16 51.26492 14.34365 37991 ft 413 kts 276°
2026-05-04 11:17 51.27300 14.25330 37989 ft 413 kts 275°
2026-05-04 11:19 51.30481 13.88926 37988 ft 413 kts 275°
2026-05-04 11:19 51.31258 13.79828 37992 ft 413 kts 275°
2026-05-04 11:20 51.32029 13.70705 37990 ft 413 kts 275°
2026-05-04 11:20 51.32792 13.61592 37989 ft 413 kts 275°
2026-05-04 11:22 51.35773 13.25129 37985 ft 414 kts 275°
2026-05-04 11:23 51.36503 13.15980 37984 ft 414 kts 275°
2026-05-04 11:25 51.38998 12.83971 37989 ft 413 kts 274°
2026-05-04 11:25 51.39689 12.74893 37997 ft 413 kts 274°
2026-05-04 11:27 51.42721 12.33882 37992 ft 411 kts 274°
2026-05-04 11:28 51.43375 12.24777 37996 ft 411 kts 274°
2026-05-04 11:28 51.44021 12.15666 37993 ft 411 kts 274°
2026-05-04 11:29 51.44659 12.06569 38013 ft 411 kts 274°
2026-05-04 11:29 51.45291 11.97467 37994 ft 410 kts 274°
2026-05-04 11:33 51.49496 11.33950 37986 ft 409 kts 273°
2026-05-04 11:33 51.50069 11.24863 37988 ft 409 kts 273°
2026-05-04 11:34 51.50635 11.15776 37998 ft 409 kts 273°
2026-05-04 11:34 51.51190 11.06754 38000 ft 408 kts 272°
2026-05-04 11:35 51.51742 10.97702 37993 ft 407 kts 272°
2026-05-04 11:35 51.52287 10.88651 37987 ft 407 kts 272°
2026-05-04 11:36 51.52826 10.79598 37984 ft 407 kts 272°
2026-05-04 11:36 51.53359 10.70533 37989 ft 407 kts 272°
2026-05-04 11:37 51.53996 10.61488 38002 ft 408 kts 275°
2026-05-04 11:37 51.54813 10.52479 37982 ft 407 kts 275°
2026-05-04 11:38 51.55604 10.43528 37987 ft 407 kts 275°
2026-05-04 11:38 51.56393 10.34515 37990 ft 407 kts 275°
2026-05-04 11:39 51.57176 10.25500 37970 ft 407 kts 275°
2026-05-04 11:41 51.59727 9.95496 37980 ft 406 kts 274°
2026-05-04 11:41 51.60478 9.86486 37973 ft 406 kts 274°
2026-05-04 11:42 51.61222 9.77469 37983 ft 406 kts 274°
2026-05-04 11:42 51.61959 9.68453 37997 ft 406 kts 273°
2026-05-04 11:43 51.62690 9.59425 37982 ft 407 kts 273°
2026-05-04 11:43 51.63410 9.50435 37979 ft 407 kts 273°
2026-05-04 11:44 51.64130 9.41377 37983 ft 407 kts 273°
2026-05-04 11:44 51.64840 9.32323 37976 ft 408 kts 273°
2026-05-04 11:45 51.65545 9.23266 37972 ft 407 kts 273°
2026-05-04 11:45 51.66242 9.14215 37978 ft 407 kts 273°
2026-05-04 11:46 51.66932 9.05155 37981 ft 407 kts 272°
2026-05-04 11:46 51.67611 8.96150 37984 ft 407 kts 272°
2026-05-04 11:47 51.68286 8.87094 37984 ft 407 kts 272°
2026-05-04 11:47 51.68955 8.78032 37993 ft 407 kts 272°
2026-05-04 11:48 51.69617 8.68970 37999 ft 408 kts 272°
2026-05-04 11:48 51.70275 8.59867 37990 ft 408 kts 272°
2026-05-04 11:49 51.70924 8.50770 37989 ft 408 kts 272°
2026-05-04 11:49 51.71568 8.41661 37982 ft 408 kts 272°
2026-05-04 11:50 51.72200 8.32611 37970 ft 408 kts 272°
2026-05-04 11:50 51.72830 8.23499 37989 ft 408 kts 272°
2026-05-04 11:51 51.73452 8.14387 37979 ft 409 kts 272°
2026-05-04 11:51 51.74068 8.05254 37973 ft 409 kts 272°
2026-05-04 11:52 51.74674 7.96185 37977 ft 409 kts 272°
2026-05-04 11:52 51.75275 7.87045 37981 ft 409 kts 272°
2026-05-04 11:53 51.75869 7.77918 37977 ft 409 kts 272°
2026-05-04 11:53 51.76459 7.68752 37984 ft 412 kts 272°
2026-05-04 11:55 51.78750 7.31988 37970 ft 411 kts 271°
2026-05-04 11:56 51.79307 7.22765 37968 ft 414 kts 271°
2026-05-04 11:56 51.79859 7.13492 37977 ft 415 kts 271°
2026-05-04 11:57 51.80404 7.04206 37979 ft 415 kts 271°
2026-05-04 11:57 51.80942 6.94917 37980 ft 415 kts 271°
2026-05-04 11:58 51.81470 6.85681 37979 ft 415 kts 271°
2026-05-04 11:58 51.81994 6.76386 37984 ft 416 kts 271°
2026-05-04 11:59 51.82512 6.67052 37981 ft 417 kts 271°
2026-05-04 11:59 51.83023 6.57719 37984 ft 417 kts 271°
2026-05-04 12:00 51.83526 6.48381 37984 ft 417 kts 271°
2026-05-04 12:00 51.84022 6.39051 37988 ft 417 kts 271°
2026-05-04 12:01 51.84511 6.29701 37990 ft 417 kts 271°
2026-05-04 12:02 51.86168 5.96901 37986 ft 418 kts 271°
2026-05-04 12:03 51.86623 5.87565 37998 ft 418 kts 270°
2026-05-04 12:03 51.87073 5.78163 37992 ft 421 kts 270°
2026-05-04 12:04 51.87519 5.68687 37977 ft 422 kts 270°
2026-05-04 12:04 51.87958 5.59199 37975 ft 422 kts 270°
2026-05-04 12:05 51.88389 5.49721 37983 ft 422 kts 270°
2026-05-04 12:05 51.88812 5.40251 37983 ft 422 kts 270°
2026-05-04 12:06 51.89228 5.30746 37981 ft 425 kts 270°
2026-05-04 12:06 51.89637 5.21246 37984 ft 426 kts 270°
2026-05-04 12:07 51.90042 5.11664 37982 ft 426 kts 270°
2026-05-04 12:07 51.90437 5.02098 37977 ft 426 kts 270°
2026-05-04 12:08 51.90826 4.92523 37978 ft 426 kts 270°
2026-05-04 12:08 51.91208 4.82925 37977 ft 427 kts 270°
2026-05-04 12:09 51.91582 4.73294 37981 ft 429 kts 270°
2026-05-04 12:09 51.91950 4.63650 37992 ft 429 kts 270°
2026-05-04 12:10 51.92309 4.54013 37995 ft 429 kts 270°
2026-05-04 12:10 51.92661 4.44371 37998 ft 429 kts 270°
2026-05-04 12:11 51.93002 4.34790 37991 ft 429 kts 270°
2026-05-04 12:11 51.93338 4.25140 37995 ft 429 kts 270°
2026-05-04 12:12 51.93665 4.15514 37992 ft 429 kts 270°
2026-05-04 12:12 51.93985 4.05865 37975 ft 428 kts 269°
2026-05-04 12:14 51.95199 3.67163 38012 ft 431 kts 269°
2026-05-04 12:15 51.95484 3.57504 38008 ft 431 kts 269°
2026-05-04 12:15 51.95762 3.47811 38015 ft 431 kts 269°
2026-05-04 12:16 51.96033 3.38098 38015 ft 432 kts 269°
2026-05-04 12:16 51.96166 3.33240 37708 ft 430 kts 269°
2026-05-04 12:16 51.96296 3.28396 37025 ft 429 kts 269°
2026-05-04 12:17 51.96424 3.23578 36523 ft 425 kts 269°
2026-05-04 12:17 51.96548 3.18819 35957 ft 422 kts 268°
2026-05-04 12:17 51.96675 3.14051 35112 ft 426 kts 268°
2026-05-04 12:17 51.96812 3.09222 34292 ft 429 kts 268°
2026-05-04 12:18 51.96954 3.04385 33532 ft 429 kts 268°
2026-05-04 12:18 51.97095 2.99572 32809 ft 427 kts 268°
2026-05-04 12:18 51.97233 2.94767 32085 ft 425 kts 268°
2026-05-04 12:18 51.97370 2.89986 31380 ft 425 kts 268°
2026-05-04 12:19 51.97458 2.86814 30957 ft 423 kts 268°
2026-05-04 12:19 51.97632 2.80531 30248 ft 418 kts 268°
2026-05-04 12:20 51.98010 2.66455 28496 ft 406 kts 269°
2026-05-04 12:20 51.98128 2.61904 27970 ft 401 kts 269°
2026-05-04 12:20 51.98244 2.57405 27443 ft 398 kts 269°
2026-05-04 12:20 51.98357 2.52932 26922 ft 394 kts 269°
2026-05-04 12:21 51.98467 2.48514 26407 ft 391 kts 269°
2026-05-04 12:21 51.98603 2.44131 25941 ft 388 kts 274°
2026-05-04 12:21 51.99149 2.39884 25716 ft 379 kts 279°
2026-05-04 12:21 51.99663 2.35715 25512 ft 381 kts 278°
2026-05-04 12:22 52.00163 2.31433 25043 ft 389 kts 278°
2026-05-04 12:22 52.00653 2.27102 24546 ft 391 kts 278°
2026-05-04 12:22 52.01136 2.22766 24025 ft 389 kts 278°
2026-05-04 12:22 52.01611 2.18455 23489 ft 387 kts 278°
2026-05-04 12:23 52.02081 2.14164 22883 ft 385 kts 278°
2026-05-04 12:23 52.02539 2.09957 22372 ft 381 kts 278°
2026-05-04 12:23 52.02997 2.05743 21882 ft 377 kts 278°
2026-05-04 12:23 52.03450 2.01560 21389 ft 374 kts 278°
2026-05-04 12:24 52.03898 1.97410 20908 ft 371 kts 278°
2026-05-04 12:24 52.04340 1.93299 20446 ft 369 kts 278°
2026-05-04 12:24 52.04632 1.90584 20137 ft 367 kts 278°
2026-05-04 12:24 52.05067 1.86511 19679 ft 365 kts 278°
2026-05-04 12:25 52.05499 1.82457 19223 ft 364 kts 278°
2026-05-04 12:25 52.05928 1.78417 18783 ft 362 kts 278°
2026-05-04 12:25 52.06355 1.74389 18342 ft 360 kts 278°
2026-05-04 12:25 52.06777 1.70380 17858 ft 359 kts 278°
2026-05-04 12:26 52.07197 1.66391 17413 ft 356 kts 278°
2026-05-04 12:26 52.07611 1.62433 16982 ft 354 kts 278°
2026-05-04 12:26 52.08020 1.58514 16567 ft 350 kts 278°
2026-05-04 12:26 52.08425 1.54625 16158 ft 347 kts 278°
2026-05-04 12:27 52.08820 1.50817 15749 ft 345 kts 278°
2026-05-04 12:27 52.09216 1.46991 15363 ft 342 kts 278°
2026-05-04 12:27 52.09608 1.43182 14959 ft 341 kts 278°
2026-05-04 12:27 52.10001 1.39363 14559 ft 345 kts 278°
2026-05-04 12:28 52.10396 1.35498 14149 ft 347 kts 278°
2026-05-04 12:28 52.10789 1.31649 13734 ft 345 kts 278°
2026-05-04 12:28 52.11180 1.27804 13284 ft 343 kts 278°
2026-05-04 12:28 52.11567 1.23988 12859 ft 340 kts 278°
2026-05-04 12:29 52.11634 1.20189 12396 ft 336 kts 260°
2026-05-04 12:29 52.11081 1.16535 12231 ft 333 kts 256°
2026-05-04 12:29 52.10500 1.12868 12089 ft 335 kts 255°
2026-05-04 12:29 52.09905 1.09203 12027 ft 334 kts 255°
2026-05-04 12:30 52.09308 1.05586 12002 ft 326 kts 255°
2026-05-04 12:30 52.08722 1.02060 11678 ft 321 kts 255°
2026-05-04 12:30 52.08139 0.98565 11255 ft 320 kts 255°
2026-05-04 12:30 52.07557 0.95087 10834 ft 315 kts 255°
2026-05-04 12:31 52.06990 0.91705 10491 ft 305 kts 255°
2026-05-04 12:31 52.06443 0.88445 10273 ft 291 kts 255°
2026-05-04 12:31 52.05921 0.85350 10129 ft 278 kts 255°
2026-05-04 12:31 52.05417 0.82358 9941 ft 272 kts 255°
2026-05-04 12:32 52.04918 0.79402 9608 ft 270 kts 255°
2026-05-04 12:32 52.03930 0.73563 8987 ft 266 kts 255°
2026-05-04 12:32 52.03523 0.70694 8716 ft 263 kts 260°
2026-05-04 12:33 52.03241 0.67774 8443 ft 260 kts 261°
2026-05-04 12:33 52.02971 0.64899 8291 ft 253 kts 261°
2026-05-04 12:33 52.02709 0.62117 8164 ft 245 kts 261°
2026-05-04 12:33 52.02452 0.59410 8086 ft 242 kts 261°
2026-05-04 12:34 52.02194 0.56697 7853 ft 244 kts 261°
2026-05-04 12:34 52.01934 0.53974 7534 ft 246 kts 261°
2026-05-04 12:34 52.01670 0.51216 7223 ft 247 kts 261°
2026-05-04 12:34 52.01403 0.48462 6909 ft 247 kts 261°
2026-05-04 12:35 52.01145 0.45697 6600 ft 248 kts 261°
2026-05-04 12:35 52.00887 0.42953 6279 ft 249 kts 261°
2026-05-04 12:35 52.00621 0.40187 6051 ft 245 kts 261°
2026-05-04 12:35 52.00365 0.37497 6011 ft 239 kts 261°
2026-05-04 12:36 52.00052 0.34845 5979 ft 239 kts 250°
2026-05-04 12:36 51.99285 0.32479 5991 ft 238 kts 237°
2026-05-04 12:36 51.98366 0.30231 5901 ft 239 kts 236°
2026-05-04 12:36 51.97437 0.27995 5751 ft 238 kts 236°
2026-05-04 12:37 51.96524 0.25798 5578 ft 238 kts 236°
2026-05-04 12:37 51.95597 0.23571 5355 ft 238 kts 236°
2026-05-04 12:37 51.94670 0.21344 5133 ft 238 kts 236°
2026-05-04 12:37 51.93747 0.19131 4901 ft 237 kts 236°
2026-05-04 12:38 51.92823 0.16919 4678 ft 236 kts 236°
2026-05-04 12:38 51.91903 0.14715 4441 ft 235 kts 236°
2026-05-04 12:38 51.90986 0.12523 4210 ft 234 kts 236°
2026-05-04 12:38 51.90074 0.10343 4024 ft 233 kts 236°
2026-05-04 12:39 51.89098 0.08266 3977 ft 232 kts 224°
2026-05-04 12:39 51.87843 0.06616 3904 ft 233 kts 216°
2026-05-04 12:39 51.86533 0.05075 3704 ft 233 kts 216°
2026-05-04 12:39 51.85221 0.03545 3478 ft 232 kts 216°
2026-05-04 12:40 51.83916 0.02026 3260 ft 232 kts 216°
2026-05-04 12:40 51.82609 0.00507 3011 ft 231 kts 216°
2026-05-04 12:40 51.81311 -0.00996 2809 ft 229 kts 216°
2026-05-04 12:40 51.79929 -0.02203 2568 ft 226 kts 191°
2026-05-04 12:41 51.78435 -0.02036 2511 ft 212 kts 153°
2026-05-04 12:41 51.77339 -0.00590 2496 ft 205 kts 132°
2026-05-04 12:41 51.76383 0.01112 2515 ft 208 kts 131°
2026-05-04 12:41 51.75468 0.02966 2477 ft 208 kts 115°
2026-05-04 12:42 51.75190 0.05158 2426 ft 202 kts 83°
2026-05-04 12:42 51.75699 0.07232 2445 ft 201 kts 50°
2026-05-04 12:42 51.76809 0.08534 2470 ft 201 kts 22°
2026-05-04 12:42 51.78113 0.09385 2527 ft 203 kts 24°
2026-05-04 12:43 51.79373 0.10415 2439 ft 203 kts 30°
2026-05-04 12:43 51.80540 0.11649 2273 ft 196 kts 37°
2026-05-04 12:43 51.81556 0.13061 2035 ft 189 kts 42°
2026-05-04 12:43 51.82503 0.14494 1790 ft 184 kts 43°
2026-05-04 12:44 51.83419 0.15869 1568 ft 172 kts 42°
2026-05-04 12:44 51.84260 0.17129 1327 ft 158 kts 42°
2026-05-04 12:44 51.85023 0.18275 1165 ft 145 kts 41°
2026-05-04 12:44 51.85748 0.19362 921 ft 140 kts 41°
2026-05-04 12:45 51.86458 0.20415 724 ft 138 kts 43°
2026-05-04 12:45 51.87167 0.21481 517 ft 141 kts 43°
2026-05-04 12:45 51.87883 0.22556 346 ft 136 kts 43°
2026-05-04 12:45 51.88490 0.23463 346 ft 91 kts 43°
2026-05-04 12:46 51.88779 0.23909 344 ft 34 kts 51°
2026-05-04 12:46 51.88871 0.24183 355 ft 18 kts 71°
2026-05-04 12:46 51.88904 0.24352 359 ft 15 kts 73°
2026-05-04 12:46 51.88921 0.24450 359 ft 5 kts 82°
2026-05-04 12:47 51.88914 0.24494 360 ft 4 kts 121°
2026-05-04 12:47 51.88901 0.24566 358 ft 10 kts 71°
2026-05-04 12:47 51.88954 0.24646 358 ft 12 kts 41°
2026-05-04 12:47 51.89013 0.24735 355 ft 12 kts 43°
2026-05-04 12:48 51.89078 0.24832 361 ft 14 kts 43°
2026-05-04 12:48 51.89157 0.24950 359 ft 16 kts 42°
2026-05-04 12:48 51.89224 0.25070 360 ft 10 kts 58°
2026-05-04 12:48 51.89232 0.25185 361 ft 11 kts 131°
2026-05-04 12:49 51.89174 0.25286 355 ft 12 kts 133°
2026-05-04 12:49 51.89109 0.25399 360 ft 14 kts 133°
2026-05-04 12:49 51.89066 0.25483 355 ft 8 kts 105°
2026-05-04 12:49 51.89092 0.25550 355 ft 5 kts 42°
2026-05-04 12:50 51.89109 0.25575 360 ft 0 kts 42°